Tracking 22881 objects as of 20-Apr-2021
HD Live streaming from Space Station
objects crossing your sky now

STARLINK-2370

Track STARLINK-2370 now!
10-day predictions
STARLINK-2370 is classified as:


NORAD ID: 47910
Int'l Code: 2021-021BC
Perigee: 356.2 km
Apogee: 357.8 km
Inclination: 53.1 °
Period: 91.5 minutes
Semi major axis: 6727 km
RCS: Unknown
Launch date: March 14, 2021
Source: United States (US)
Launch site: AIR FORCE EASTERN TEST RANGE (AFETR)
aabbcc
Your satellite tracking list
Your tracking list is empty




NASA's NSSDC Master Catalog

Two Line Element Set (TLE):
1 47910U 21021BC  21109.58334491  .00065136  00000-0  46551-3 0  9992
2 47910  53.0513  38.1596 0001155  72.3619 258.4040 15.73166551  1769
Source of the keplerian elements: AFSPC